Location: La Comballaz
(46.3780°N, 7.0817°E)
Time: 18:07:09
(UTC+00:00)

ASTEX 1 - Pass Details

Date: 09 April 2020
Orbit: 721 x 743 km, 92.7° (Epoch: 03 June)

Event Time Altitude Azimuth Distance (km) Brightness Sun altitude
Exits shadow 21:49:58 48° 348° (NNW) 958 4.2 -31.0°
Drops below altitude 10° 21:53:34 10° 353° (N) 2,249 6.7 -31.3°
Sets 21:55:52 0° 354° (N) 3,173 7.6 -31.5°
